Location: Cahoon Acres
(40.8736°N, 111.8994°W)
Time: 22:12:06
(UTC+00:00)

Vanguard 1 Rocket - All Passes

Search period start: 25 May 2020 00:00
Search period end: 04 June 2020 00:00
Orbit: 653 x 4224 km, 34.3° (Epoch: 23 May)

Date Brightness Start Highest point End Pass type
(mag) Time Alt. Az. Time Alt. Az. Time Alt. Az.
25 May - 06:43:10 10° SSW 06:56:52 24° SSE 07:05:56 10° ESE visible
25 May - 09:10:22 10° SW 09:24:28 44° SSE 09:32:04 10° E visible
25 May - 11:40:39 10° WSW 11:50:23 52° S 11:55:52 10° ESE daylight
25 May - 14:09:44 10° W 14:14:44 25° SSW 14:18:33 10° SSE daylight
26 May - 05:32:42 10° S 05:43:57 17° SE 05:52:31 10° ESE visible
26 May - 07:56:29 10° SW 08:12:21 38° SSE 08:21:18 10° E visible
26 May - 10:26:40 10° WSW 10:39:09 54° S 10:45:43 10° E visible
26 May - 12:56:50 10° W 13:04:14 40° SSW 13:08:56 10° SE daylight
27 May - 06:43:16 10° SSW 06:59:46 31° SSE 07:09:58 10° E visible
27 May - 09:12:16 10° WSW 09:27:28 51° S 09:35:22 10° E visible
27 May - 11:43:20 10° W 11:53:25 52° S 11:59:01 10° ESE daylight
27 May - 14:13:02 10° W 14:17:33 20° SSW 14:21:04 10° SSE daylight
28 May - 05:31:22 10° S 05:46:46 23° SSE 05:57:32 10° ESE visible
28 May - 07:57:51 10° SW 08:15:17 45° SSE 08:24:44 10° E visible
28 May - 10:29:07 10° WSW 10:42:10 58° S 10:48:55 10° ESE visible
28 May - 12:59:45 10° W 13:07:09 35° SSW 13:11:51 10° SE daylight
29 May - 04:22:05 10° S 04:33:31 16° SE 04:42:48 10° ESE visible
29 May - 06:43:57 10° SSW 07:02:35 38° SSE 07:13:37 10° E visible
29 May - 09:14:22 10° WSW 09:30:26 57° S 09:38:37 10° E visible
29 May - 11:46:03 10° W 11:56:24 50° SSW 12:02:07 10° ESE daylight
29 May - 14:16:38 10° WSW 14:20:16 16° SW 14:23:13 10° S daylight
30 May - 05:31:07 10° SSW 05:49:29 30° SSE 06:01:41 10° E visible
30 May - 07:59:29 10° SW 08:18:10 52° SSE 08:28:02 10° E visible
30 May - 10:31:38 10° W 10:45:10 59° S 10:52:05 10° ESE visible
30 May - 13:02:44 10° W 13:09:57 30° SSW 13:14:38 10° SSE daylight
31 May - 04:20:07 10° S 04:36:07 22° SE 04:48:18 10° E visible
31 May - 06:45:02 10° SW 07:05:22 45° SSE 07:17:02 10° E visible
31 May - 09:16:36 10° WSW 09:33:23 61° S 09:41:49 10° E visible
31 May - 11:48:46 10° W 11:59:18 46° SSW 12:05:08 10° SE daylight
31 May - 14:21:04 10° WSW 14:22:51 11° SW 14:24:27 10° SSW daylight
01 Jun - 03:12:53 10° SSE 03:22:43 14° SE 03:31:24 10° ESE visible
01 Jun - 05:31:31 10° SSW 05:52:08 37° SSE 06:05:24 10° E visible
01 Jun - 08:01:21 10° WSW 08:21:02 58° S 08:31:15 10° E visible
01 Jun - 10:34:11 10° W 10:48:07 59° S 10:55:13 10° ESE visible
01 Jun - 13:05:51 10° W 13:12:39 25° SW 13:17:13 10° SSE daylight
02 Jun - 04:19:31 10° SSW 04:38:37 28° SE 04:52:41 10° E visible
02 Jun - 06:46:27 10° SW 07:08:07 52° SSE 07:20:19 10° E visible
02 Jun - 09:18:57 10° WSW 09:36:18 64° S 09:44:59 10° ESE visible
02 Jun - 11:51:33 10° W 12:02:07 41° SSW 12:08:03 10° SE daylight
03 Jun - 03:09:51 10° S 03:25:06 20° SE 03:37:55 10° E visible
03 Jun - 05:32:24 10° SW 05:54:43 44° SSE 06:08:50 10° E visible
03 Jun - 08:03:25 10° WSW 08:23:53 63° S 08:34:26 10° E visible
03 Jun - 10:36:45 10° W 10:50:59 56° SSW 10:58:17 10° ESE visible
03 Jun - 13:09:09 10° W 13:15:13 20° SW 13:19:29 10° S daylight
